Location: Canazei
(46.4667°N, 11.7667°E)
Time: 06:12:27
(UTC+00:00)

Cosmos 864 Rocket - Pass Details

Date: 21 April 2021
Orbit: 953 x 992 km, 82.9° (Epoch: 15 May)

Event Time Altitude Azimuth Distance (km) Brightness Sun altitude
Rises 00:56:51 0° 348° (NNW) 3,691 8.2 -27.1°
Reaches altitude 10° 00:59:24 10° 346° (NNW) 2,733 7.4 -26.9°
Maximum altitude 01:05:35 65° 267° (W) 1,057 4.4 -26.3°
Enters shadow 01:06:03 63° 241° (WSW) 1,073 4.4 -26.3°
